Temp
13 13 12 12 12 12 12 12 11 11 10 9 8 8 8 8 8 7 7 7 7 7 7 7 7 7 7 7 6 6 7 6 6 6 6 6 6 7 6 6 6 6 6
13 13 12 12 12 12 12 12 11 11 10 9 8 8 8 8 8 8 7 6 7 7 7 7 7 7 7 6 6 6 6 6 6 6 6 6 6 6 6 6 6 6 6
13 12 12 12 12 12 12 12 11 11 10 9 8 8 8 8 8 8 7 6 6 6 6 6 7 7 7 6 6 6 6 6 6 6 6 6 6 6 6 6 6 6 6
13 12 12 12 12 12 12 11 11 10 10 9 9 8 8 8 8 8 7 7 6 6 6 6 6 6 7 6 6 6 6 6 6 6 6 6 6 5 5 6 5 5 5
13 12 12 12 12 12 11 11 11 10 9 9 9 8 9 8 8 8 7 7 6 6 6 6 6 6 6 6 6 6 6 6 6 6 6 6 6 5 5 5 5 5 5
12 12 12 12 12 11 11 11 11 10 10 9 9 9 8 9 8 8 7 7 6 5 5 6 6 6 6 6 6 6 6 6 6 6 6 6 6 5 5 5 5 5 5
11 11 11 11 11 11 11 11 10 10 10 9 9 9 8 8 8 8 7 6 6 5 5 5 6 6 6 6 6 6 6 6 6 6 6 6 5 5 4 4 4 4 4
11 11 11 11 11 11 11 11 10 10 10 9 9 8 8 8 8 7 7 6 6 5 5 5 5 5 5 5 5 5 5 6 6 6 5 5 5 4 4 3 3 3 4
11 11 11 11 11 11 10 10 10 10 10 9 9 8 8 8 8 7 7 6 6 5 5 5 5 5 5 5 5 5 5 5 5 5 5 5 4 4 3 2 2 3 3
11 11 11 11 11 11 10 10 10 10 10 9 9 8 8 8 7 7 7 6 6 5 5 5 5 5 5 5 4 4 5 4 4 4 4 4 4 4 3 3 2 2 3
10 11 11 11 11 11 10 10 10 10 9 9 9 9 8 8 7 7 7 6 6 5 5 5 4 4 4 4 4 4 4 4 4 4 4 4 4 3 3 2 2 2 2
10 10 11 11 11 10 10 10 10 10 9 9 9 9 8 8 8 7 7 6 6 6 5 5 4 4 4 4 4 4 4 4 4 3 4 4 4 3 3 3 3 2 1
10 10 10 10 10 10 10 10 10 10 9 9 9 9 8 8 8 7 7 6 6 6 5 5 5 4 4 4 4 4 4 4 4 3 4 4 4 3 3 1 2 3 4
9 10 10 10 10 10 10 10 9 10 9 9 9 8 8 8 8 7 7 7 6 6 5 5 5 4 4 4 3 3 3 4 3 3 3 4 4 3 3 2 2 3 3
9 9 9 9 9 9 9 9 9 9 9 8 8 8 8 8 8 8 7 7 6 6 6 5 5 4 4 4 3 3 3 3 3 3 3 3 3 3 3 2 2 2 3
8 9 9 9 9 9 9 9 9 9 9 8 8 8 8 8 8 7 7 7 7 6 6 6 5 4 4 4 4 4 3 3 3 3 3 3 3 3 3 2 3 2 2
8 8 9 9 9 9 9 8 8 8 8 8 8 7 7 7 7 7 7 7 7 6 6 6 5 5 5 4 4 4 3 3 3 3 3 3 3 3 2 2 2 1 2
7 8 8 8 8 8 8 8 8 8 7 8 7 7 7 7 7 7 7 7 7 7 6 6 6 5 5 5 4 4 3 3 3 3 3 3 3 3 3 3 2 2 2
7 7 8 8 8 8 7 7 7 7 7 7 7 7 7 7 7 7 7 7 7 7 6 6 6 6 5 5 4 4 4 3 3 3 3 3 2 2 3 3 2 2 2
7 7 8 8 7 7 7 7 6 6 6 7 7 7 7 7 7 7 7 7 6 7 6 6 6 6 5 5 5 4 4 3 3 3 3 3 3 2 2 2 2 2 2
6 7 7 7 7 7 7 6 6 6 7 7 7 7 7 7 7 7 6 6 6 6 6 6 6 6 6 5 5 5 5 4 4 3 3 3 3 2 2 2 2 2 2
6 6 7 7 7 6 7 6 6 6 6 6 7 7 7 7 7 7 6 6 6 6 6 6 6 6 6 6 6 5 5 5 5 4 4 2 3 2 2 1 2 1 1
6 6 7 7 6 6 6 6 6 6 7 7 7 7 7 7 7 6 6 6 6 6 6 6 6 6 6 5 6 5 6 6 5 4 3 3 2 2 2 1 1 1 1
5 6 6 6 7 7 7 7 7 7 7 7 7 7 7 7 6 6 6 6 6 6 6 6 6 6 6 6 5 5 5 5 5 5 3 3 1 1 2 1 1 1 0
4 5 6 6 6 6 6 7 7 7 7 7 7 7 7 6 6 6 6 6 6 5 5 5 5 5 6 5 5 5 5 5 5 5 4 3 2 2 1 1 1 1 1
3 4 5 6 6 6 6 6 6 7 7 6 6 6 7 6 6 6 5 5 5 4 4 4 5 5 5 5 5 5 5 5 5 4 4 3 3 3 2 2 1 1 1
Height
3153 3154 3156 3155 3155 3155 3155 3155 3155 3155 3156 3157 3159 3160 3160 3161 3162 3162 3164 3166 3167 3167 3167 3168 3169 3170 3172 3172 3173 3175 3175 3176 3176 3177 3177 3178 3178 3178 3178 3179 3180 3181 3182
3153 3154 3155 3155 3155 3155 3154 3155 3155 3155 3156 3157 3158 3159 3160 3160 3161 3162 3163 3165 3166 3167 3168 3168 3169 3170 3171 3172 3173 3174 3175 3176 3176 3176 3177 3177 3177 3177 3178 3179 3180 3181 3181
3150 3152 3154 3155 3155 3154 3154 3154 3155 3156 3156 3157 3158 3159 3160 3160 3160 3161 3162 3163 3165 3166 3167 3168 3169 3170 3171 3172 3173 3174 3175 3176 3176 3176 3176 3177 3177 3177 3177 3179 3180 3180 3181
3148 3151 3153 3153 3153 3153 3153 3154 3155 3156 3156 3156 3157 3158 3159 3159 3160 3160 3161 3162 3164 3165 3167 3168 3169 3169 3170 3171 3171 3172 3173 3174 3175 3175 3175 3176 3176 3176 3177 3178 3178 3179 3180
3146 3149 3152 3152 3152 3152 3152 3152 3153 3155 3155 3156 3156 3157 3158 3159 3159 3159 3160 3161 3162 3164 3166 3167 3168 3169 3170 3170 3170 3171 3171 3172 3173 3174 3173 3174 3174 3174 3175 3176 3176 3177 3179
3146 3148 3150 3150 3150 3151 3151 3151 3152 3153 3154 3154 3155 3156 3156 3157 3158 3158 3158 3159 3161 3162 3164 3165 3167 3168 3168 3169 3169 3170 3170 3171 3171 3172 3172 3172 3173 3173 3174 3174 3174 3175 3177
3146 3148 3149 3149 3149 3149 3149 3150 3151 3151 3152 3153 3153 3154 3155 3156 3157 3157 3157 3158 3159 3161 3163 3164 3165 3166 3168 3168 3168 3168 3169 3169 3170 3170 3171 3171 3171 3172 3171 3172 3172 3174 3176
3144 3146 3147 3147 3147 3148 3148 3148 3149 3150 3151 3152 3152 3153 3154 3155 3156 3156 3156 3157 3158 3159 3161 3162 3163 3165 3167 3167 3167 3167 3168 3168 3168 3168 3169 3170 3169 3170 3166 3166 3171 3174 3175
3142 3143 3144 3144 3145 3145 3147 3147 3148 3149 3150 3151 3151 3152 3152 3153 3154 3155 3155 3155 3156 3158 3159 3160 3162 3164 3165 3166 3167 3167 3167 3167 3166 3167 3167 3168 3167 3167 3143 3161 3169 3174 3174
3140 3140 3140 3141 3142 3143 3144 3145 3146 3147 3148 3149 3150 3151 3151 3152 3152 3153 3154 3154 3155 3156 3158 3159 3161 3163 3164 3165 3165 3165 3165 3164 3164 3165 3165 3166 3165 3166 3165 3167 3171 3171 3172
3136 3136 3137 3138 3139 3141 3142 3143 3144 3145 3146 3147 3148 3150 3150 3150 3151 3151 3152 3153 3153 3154 3156 3157 3158 3160 3162 3162 3163 3163 3163 3163 3163 3163 3163 3164 3165 3165 3165 3165 3167 3169 3169
3132 3133 3133 3135 3137 3138 3139 3141 3141 3143 3143 3145 3147 3147 3148 3149 3149 3150 3150 3151 3152 3153 3154 3155 3156 3158 3159 3160 3161 3161 3161 3162 3162 3161 3162 3162 3163 3163 3164 3164 3165 3166 3167
3123 3127 3130 3132 3134 3135 3137 3138 3139 3140 3141 3143 3144 3145 3146 3147 3148 3148 3148 3149 3150 3150 3151 3152 3154 3155 3156 3157 3158 3158 3159 3159 3160 3160 3160 3160 3160 3161 3159 3156 3160 3163 3165
3117 3122 3125 3127 3130 3132 3134 3136 3137 3138 3139 3141 3143 3144 3144 3145 3146 3147 3147 3147 3147 3148 3149 3150 3151 3152 3153 3154 3155 3156 3156 3156 3157 3157 3158 3158 3158 3158 3156 3156 3157 3160 3162
3108 3115 3118 3122 3125 3128 3130 3133 3134 3136 3136 3138 3139 3141 3142 3143 3144 3145 3145 3145 3145 3145 3146 3147 3148 3149 3150 3151 3151 3152 3153 3153 3153 3154 3155 3155 3155 3155 3155 3152 3152 3154 3159
3100 3105 3112 3116 3119 3122 3125 3128 3130 3131 3134 3135 3137 3138 3140 3141 3142 3142 3143 3143 3142 3142 3142 3143 3144 3145 3146 3147 3147 3148 3149 3150 3150 3151 3151 3152 3152 3153 3153 3152 3150 3150 3154
3091 3097 3102 3109 3112 3115 3120 3122 3124 3126 3129 3131 3133 3135 3137 3138 3139 3139 3140 3140 3141 3140 3140 3140 3140 3141 3142 3143 3144 3145 3145 3146 3147 3148 3148 3148 3148 3149 3149 3150 3149 3149 3150
3082 3086 3094 3099 3105 3109 3113 3116 3118 3120 3123 3126 3129 3131 3132 3134 3136 3136 3137 3138 3138 3138 3137 3137 3137 3137 3138 3139 3140 3141 3141 3141 3142 3143 3143 3143 3143 3144 3145 3146 3146 3146 3145
3073 3077 3083 3088 3096 3102 3106 3109 3112 3115 3116 3119 3123 3125 3128 3130 3131 3132 3133 3134 3134 3135 3135 3134 3134 3134 3134 3135 3136 3136 3136 3137 3137 3137 3138 3138 3137 3138 3140 3141 3141 3141 3141
3060 3066 3072 3079 3086 3094 3097 3100 3105 3108 3110 3113 3116 3119 3121 3124 3126 3127 3128 3130 3130 3131 3131 3131 3130 3130 3130 3131 3130 3131 3130 3130 3130 3131 3132 3132 3132 3132 3134 3135 3136 3136 3137
3049 3054 3060 3066 3072 3081 3086 3093 3097 3101 3104 3106 3109 3112 3115 3118 3120 3121 3123 3124 3125 3126 3127 3127 3127 3126 3126 3126 3126 3126 3125 3124 3123 3124 3125 3126 3127 3127 3128 3129 3129 3130 3131
3038 3043 3049 3057 3064 3070 3078 3085 3089 3094 3096 3101 3103 3106 3109 3112 3115 3116 3117 3119 3119 3120 3121 3122 3122 3122 3122 3121 3121 3121 3120 3121 3118 3119 3119 3119 3120 3121 3121 3122 3122 3120 3121
3027 3034 3041 3049 3056 3063 3070 3076 3079 3083 3088 3092 3096 3098 3102 3105 3107 3109 3111 3112 3113 3113 3114 3116 3117 3117 3117 3117 3116 3116 3115 3115 3114 3114 3113 3113 3114 3113 3114 3115 3115 3113 3114
3016 3024 3031 3040 3048 3055 3062 3067 3071 3076 3081 3086 3090 3092 3094 3098 3100 3101 3104 3104 3105 3106 3107 3109 3110 3111 3111 3112 3110 3110 3110 3109 3108 3107 3107 3107 3107 3107 3108 3109 3110 3109 3107
3005 3014 3023 3031 3039 3046 3053 3058 3063 3069 3073 3078 3081 3082 3085 3088 3091 3093 3095 3097 3098 3099 3100 3102 3104 3104 3104 3105 3105 3105 3104 3103 3102 3102 3100 3100 3100 3101 3100 3101 3102 3103 3103
3002 3008 3014 3023 3031 3037 3044 3050 3055 3060 3064 3069 3072 3074 3076 3077 3080 3082 3085 3086 3087 3088 3091 3094 3096 3096 3097 3097 3099 3098 3098 3097 3096 3095 3093 3092 3092 3093 3093 3092 3093 3095 3096
Wind_Speed
10 14 12 5 2 5 9 11 9 8 7 5 5 6 8 6 5 2 2 2 2 2 2 2 3 4 5 5 6 6 6 6 7 6 5 3 5 2 4 6 7 8 7
18 14 13 7 2 4 7 8 7 7 6 4 5 7 8 7 5 4 2 4 4 4 3 1 2 3 4 4 4 5 5 6 6 6 4 2 1 6 5 7 8 8 8
17 14 13 8 3 3 5 5 4 5 5 4 6 7 7 7 6 5 4 5 5 6 4 4 3 2 3 4 4 5 6 6 6 6 6 5 6 7 7 8 8 7 7
16 14 13 8 3 1 2 1 2 3 4 4 6 6 7 8 7 6 6 6 7 7 6 5 5 5 5 4 5 6 7 8 7 8 9 8 6 8 9 10 10 9 9
16 15 13 7 3 1 2 1 0 3 4 5 6 6 7 8 8 7 7 7 8 8 7 6 5 4 4 5 5 5 6 7 7 8 10 9 9 10 11 12 11 11 10
13 17 11 6 2 2 2 2 2 3 4 6 5 6 6 7 8 8 7 7 8 8 6 5 7 6 6 7 7 6 6 7 7 8 11 11 13 12 13 13 14 12 10
15 13 8 5 4 3 3 4 3 4 5 6 5 5 5 7 8 8 8 7 7 7 6 6 6 5 6 6 5 5 5 6 8 9 10 11 11 11 15 17 15 13 12
15 10 8 5 6 6 5 5 5 5 5 6 6 5 5 5 6 7 8 7 7 7 7 7 6 5 6 7 7 7 7 7 8 8 9 10 12 13 21 22 16 13 10
17 12 9 6 6 7 7 6 6 6 6 6 6 5 4 4 6 6 7 8 8 8 7 7 6 5 7 8 8 8 8 9 9 9 9 10 12 13 5 20 17 13 10
20 15 12 8 7 8 7 8 8 7 6 6 6 5 4 5 5 6 7 8 8 9 9 8 9 8 9 11 11 10 9 7 8 12 12 11 13 14 16 14 15 15 9
24 19 16 12 9 11 11 10 9 8 8 7 7 6 4 4 5 6 7 8 9 10 10 11 11 11 10 10 9 9 9 8 7 8 9 9 11 12 12 18 21 25 20
26 22 18 17 12 13 13 11 11 10 8 8 7 6 5 4 5 6 7 8 9 11 11 13 14 14 13 12 10 9 10 10 10 10 9 10 13 14 15 16 10 4 16
35 29 23 19 17 15 16 13 11 11 10 9 8 7 5 5 5 6 7 7 9 10 11 12 13 15 14 15 14 12 12 12 13 13 14 13 13 14 19 18 10 4 17
39 34 29 24 22 17 19 17 12 11 12 11 9 9 6 5 5 6 7 8 9 10 12 13 13 16 17 18 18 15 14 14 14 15 13 15 15 16 16 19 11 10 14
44 40 33 27 26 21 20 19 17 16 15 14 12 10 8 6 6 7 7 8 9 10 11 12 14 16 18 19 20 19 18 17 17 17 17 15 16 16 16 15 19 19 18
45 44 38 31 29 26 22 21 23 21 19 17 15 13 10 9 8 8 8 9 9 10 11 12 14 16 18 20 22 22 20 20 19 19 19 19 19 18 18 17 18 19 20
46 47 45 35 33 28 27 26 27 24 23 21 18 17 15 13 11 10 10 10 10 10 12 13 15 17 18 20 21 22 21 22 22 20 21 21 22 21 22 20 18 18 23
45 50 47 41 36 32 28 29 30 28 26 25 23 21 20 18 16 15 13 11 12 13 12 13 14 17 17 19 21 21 23 24 24 24 23 23 23 23 22 22 23 21 21
43 51 50 47 39 33 31 33 31 28 25 26 28 27 24 23 21 19 18 15 15 15 13 13 13 15 16 17 20 22 23 25 26 26 26 25 25 24 23 23 21 23 23
43 52 53 50 41 35 33 35 31 30 28 28 26 25 23 23 24 24 21 21 19 17 15 14 13 14 15 17 20 22 23 24 25 25 24 26 26 26 25 23 23 22 27
46 49 55 55 47 41 40 37 32 30 30 29 27 28 26 24 23 24 23 25 24 20 17 17 17 15 14 17 20 22 23 26 27 27 27 27 27 26 26 25 28 31 34
48 46 53 54 52 45 42 38 37 38 35 32 30 27 26 26 27 25 24 24 27 25 22 21 19 17 16 17 18 20 22 24 23 25 28 29 28 26 25 26 26 26 33
49 45 48 48 48 49 47 46 41 37 36 35 34 32 34 32 31 32 28 25 27 29 27 24 23 22 19 19 19 20 22 22 21 22 24 24 23 26 25 25 27 22 34
47 45 43 40 39 39 40 40 40 39 38 39 38 37 38 35 35 36 36 31 27 28 31 28 27 26 24 24 22 22 22 23 23 26 23 23 23 21 23 24 25 26 28
35 43 41 41 40 41 40 41 41 38 40 41 42 42 42 42 42 40 39 36 32 28 28 31 31 31 30 28 26 24 25 25 25 27 27 23 24 22 23 27 28 28 30
30 37 43 45 43 41 35 34 34 32 35 36 35 37 41 41 42 44 40 38 40 33 26 26 31 34 35 33 31 29 28 27 27 29 28 26 26 24 22 23 28 27 32
Wind_Direction
247 241 227 200 119 41 26 16 0 343 330 306 283 288 303 324 339 319 201 206 230 216 259 233 209 210 210 210 219 227 225 218 223 232 216 192 171 217 154 164 155 154 145
241 256 229 209 175 58 38 24 357 341 320 297 281 284 293 308 320 319 256 207 216 206 212 201 225 229 229 226 228 226 231 225 225 228 221 230 238 191 189 178 171 168 170
218 226 234 212 190 70 46 26 348 331 314 288 275 275 284 299 304 301 270 224 218 220 214 244 270 281 242 221 225 234 238 236 234 243 241 223 202 205 195 190 177 177 178
224 223 229 217 198 355 67 39 347 301 290 281 268 268 280 293 287 280 271 242 225 230 231 248 258 257 256 240 232 237 245 248 249 253 256 252 240 215 195 195 188 184 183
233 226 215 211 268 178 125 107 229 274 261 270 270 268 285 287 286 274 263 250 230 230 248 254 241 234 248 247 245 242 249 253 249 248 248 239 246 222 212 198 189 189 193
219 207 202 229 217 184 172 175 210 243 255 262 271 274 278 288 283 277 261 252 233 231 232 232 240 256 258 256 251 246 245 251 249 245 247 248 243 228 214 201 197 194 191
207 200 212 221 209 206 202 197 208 229 242 254 257 263 271 285 284 278 268 252 243 233 235 243 250 253 253 245 234 234 235 245 254 251 249 247 249 230 215 200 188 183 191
200 214 215 224 241 222 210 203 203 216 222 230 237 246 259 273 281 278 272 260 253 241 246 251 253 257 245 239 235 236 244 254 265 258 247 240 238 228 216 186 178 187 192
205 206 201 215 216 209 211 204 206 210 211 219 226 234 241 251 269 278 273 263 253 251 248 251 254 262 245 244 252 255 265 263 264 246 240 236 242 231 219 162 179 192 198
214 204 202 209 220 220 215 211 206 204 210 221 225 229 235 236 249 267 270 264 254 255 251 256 256 258 253 266 268 266 271 252 254 252 249 256 254 245 254 246 225 208 216
217 216 213 214 213 230 217 211 211 207 208 221 228 231 232 244 247 256 264 264 261 257 259 256 252 254 260 264 261 265 270 252 245 251 254 254 268 266 256 262 250 245 216
226 228 229 224 230 227 217 216 213 212 207 212 221 228 232 244 251 254 256 263 262 263 260 256 255 254 257 258 265 266 265 262 241 256 265 263 270 262 251 262 203 223 213
221 225 227 229 222 223 220 215 220 220 217 214 217 220 230 246 256 262 260 262 266 266 267 264 265 257 258 255 257 264 266 265 261 265 263 268 272 262 259 235 237 237 220
220 225 223 221 221 224 226 221 217 229 226 224 221 221 223 242 259 269 263 255 258 263 266 266 262 255 257 255 255 259 262 266 270 263 265 268 270 269 272 256 229 214 239
217 224 225 225 223 226 230 234 228 235 231 223 223 226 229 236 254 271 266 259 256 257 264 266 262 255 254 256 257 255 260 263 265 270 267 269 266 271 272 259 235 227 240
215 220 226 223 226 227 231 237 239 234 235 232 231 232 233 241 252 264 273 267 259 257 257 259 257 254 251 252 257 261 258 264 265 267 269 269 266 268 269 274 262 268 235
217 216 222 224 226 225 233 236 241 236 239 242 243 243 244 246 254 262 267 269 265 261 258 259 258 259 259 259 261 268 260 264 268 268 266 266 265 268 262 273 275 276 255
223 218 217 220 223 223 230 236 240 237 237 242 244 245 248 250 252 258 262 265 263 267 267 265 261 262 263 263 262 263 263 263 265 267 266 266 262 263 267 268 276 275 261
226 222 219 216 220 224 230 234 235 235 233 236 239 244 247 250 252 252 256 257 257 264 268 267 267 268 265 265 265 264 264 263 264 265 265 263 261 259 261 267 272 272 247
223 224 217 217 216 221 230 232 230 227 226 226 230 232 236 243 246 249 252 256 254 258 263 266 268 269 268 265 266 267 266 265 266 268 267 263 261 260 260 263 263 270 239
222 220 217 216 211 219 230 232 226 229 230 225 225 228 232 236 242 248 250 252 253 254 256 256 262 268 275 273 270 274 272 267 264 263 261 264 260 261 263 261 271 274 241
218 219 220 216 212 216 224 226 238 239 235 233 231 228 230 236 243 250 251 257 251 251 251 253 259 264 269 274 279 280 282 277 283 276 266 269 261 262 259 253 266 272 233
214 216 214 217 218 223 227 232 231 229 231 235 235 236 238 237 240 245 248 252 251 250 250 250 253 258 266 271 278 282 288 293 290 282 277 268 266 263 257 256 256 285 221
210 209 202 209 213 217 220 224 230 236 239 242 243 242 242 242 244 244 248 247 248 252 251 250 251 255 260 268 275 284 289 289 289 290 283 274 275 265 253 259 259 268 210
214 207 208 212 218 222 228 233 238 241 245 247 248 244 242 242 243 245 246 243 246 253 255 250 254 255 258 260 270 278 284 289 292 289 290 281 270 269 259 253 252 249 244
217 209 207 211 218 221 224 231 236 248 245 244 246 243 239 241 244 243 245 246 242 249 255 256 254 255 258 260 262 270 279 286 289 289 286 280 272 265 259 267 252 244 225